SCP
0 0 0 0 0 0 0 0 0 0 0 0 0 0 0 0 0 0 0 0 0 0 0 0 0 0 0 0 0 0 0 0 0 0 0 0 0 0 0 0 0 0 0 0
0 0 0 0 0 0 0 0 0 0 0 0 0 0 0 0 0 0 0 0 0 0 0 0 0 0 0 0 0 0 0 0 0 0 0 0 0 0 0 0 0 0 0 0
0 0 0 0 0 0 0 0 0 0 0 0 0 0 0 0 0 0 0 0 0 0 0 0 0 0 0 0 0 0 0 0 0 0 0 0 0 0 0 0 0 0 0 0
0 0 0 0 0 0 0 0 0 0 0 0 0 0 0 0 0 0 0 0 0 0 0 0 0 0 0 0 0 0 0 0 0 0 0 0 0 0 0 0 0 0 0 0
0 0 0 0 0 0 0 0 0 0 0 0 0 0 0 0 0 0 0 0 0 0 0 0 0 0 0 0 0 0 0 0 0 0 0 0 0 0 0 0 0 0 0 0
0 0 0 0 0 0 0 0 0 0 0 0 0 0 0 0 0 0 0 0 0 0 0 0 0 0 0 0 0 0 0 0 0 0 0 0 0 0 0 0 0 0 0 0
0 0 0 0 0 0 0 0 0 0 0 0 0 0 0 0 0 0 0 0 0 0 0 0 0 0 0 0 0 0 0 0 0 0 0 0 0 0 0 0 0 0 0 0
0 0 0 0 0 0 0 0 0 0 0 0 0 0 0 0 0 0 0 0 0 0 0 0 0 0 0 0 0 0 0 0 0 0 0 0 0 0 0 0 0 0 0 0
0 0 0 0 0 0 0 0 0 0 0 0 0 0 0 0 0 0 0 0 0 0 0 0 0 0 0 0 0 0 0 0 0 0 0 0 0 0 0 0 0 0 0 0
0 0 0 0 0 0 0 0 0 0 0 0 0 0 0 0 0 0 0 0 0 0 0 0 0 0 0 0 0 0 0 0 0 0 0 0 0 0 0 0 0 0 0 0
0 0 0 0 0 0 0 0 0 0 0 0 0 0 0 0 0 0 0 0 0 0 0 0 0 0 0 0 0 0 0 0 0 0 0 0 0 0 0 0 0 0 0 0
0 0 0 0 0 0 0 0 0 0 0 0 0 0 0 0 0 0 0 0 0 0 0 0 0 0 0 0 0 0 0 0 0 0 0 0 0 0 0 0 0 0 0 0
0 0 0 0 0 0 0 0 0 0 0 0 0 0 0 0 0 0 0 0 0 0 0 0 0 0 0 0 0 0 0 0 0 0 0 0 0 0 0 0 0 0 0 0
0 0 0 0 0 0 0 0 0 0 0 0 0 0 0 0 0 0 0 0 0 0 0 0 0 0 0 0 0 0 0 0 0 0 0 0 0 0 0 0 0 0 0 0
0 0 0 0 0 0 0 0 0 0 0 0 0 0 0 0 0 0 0 0 0 0 0 0 0 0 0 0 0 0 0 0 0 0 0 0 0 0 0 0 0 0 0 0
0 0 0 0 0 0 0 0 0 0 0 0 0 0 0 0 0 0 0 0 0 0 0 0 0 0 0 0 0 0 0 0 0 0 0 0 0 0 0 0 0 0 0 0
0 0 0 0 0 0 0 0 0 0 0 0 0 0 0 0 0 0 0 0 0 0 0 0 0 0 0 0 0 0 0 0 0 0 0 0 0 0 0 0 0 0 0 0
0 0 0 0 0 0 0 0 0 0 0 0 0 0 0 0 0 0 0 0 0 0 0 0 0 0 0 0 0 0 0 0 0 0 0 0 0 0 0 0 0 0 0 0
0 0 0 0 0 0 0 0 0 0 0 0 0 0 0 0 0 0 0 0 0 0 0 0 0 0 0 0 0 0 0 0 0 0 0 0 0 0 0 0 0 0 0 0
0 0 0 0 0 0 0 0 0 0 0 0 0 0 0 0 0 0 0 0 0 0 0 0 0 0 0 0 0 0 0 0 0 0 0 0 0 0 0 0 0 0 0 0
0 0 0 0 0 0 0 0 0 0 0 0 0 0 0 0 0 0 0 0 0 0 0 0 0 0 0 0 0 0 0 0 0 0 0 0 0 0 0 0 0 0 0 0
0 0 0 0 0 0 0 0 0 0 0 0 0 0 0 0 0 0 0 0 0 0 0 0 0 0 0 0 0 0 0 0 0 0 0 0 0 0 0 0 0 0 0 0
0 0 0 0 0 0 0 0 0 0 0 0 0 0 0 0 0 0 0 0 0 0 0 0 0 0 0 0 0 0 0 0 0 0 0 0 0 0 0 0 0 0 0 0
0 0 0 0 0 0 0 0 0 0 0 0 0 0 0 0 0 0 0 0 0 0 0 0 0 0 0 0 0 0 0 0 0 0 0 0 0 0 0 0 0 0 0 0
0 0 0 0 0 0 0 0 0 0 0 0 0 0 0 0 0 0 0 0 0 0 0 0 0 0 0 0 0 0 0 0 0 0 0 0 0 0 0 0 0 0 0 0
0 0 0 0 0 0 0 0 0 0 0 0 0 0 0 0 0 0 0 0 0 0 0 0 0 0 0 0 0 0 0 0 0 0 0 0 0 0 0 0 0 0 0 0
Wind_Speed
4 5 8 10 11 8 5 6 7 5 6 7 14 18 13 12 12 12 11 8 8 9 6 5 5 6 6 5 7 8 11 11 12 10 8 7 6 6 6 7 8 9 8 8
4 11 11 8 7 9 11 14 13 9 6 8 11 17 13 15 16 15 15 11 10 7 6 5 5 5 6 6 8 9 11 10 9 8 6 5 6 5 5 5 7 8 8 7
14 5 11 14 11 11 13 14 11 10 11 10 11 14 13 13 13 14 15 11 13 16 14 9 7 6 7 8 8 10 10 10 11 11 11 9 6 5 4 5 5 6 7 7
12 13 10 8 13 13 14 8 10 9 7 6 5 10 8 10 14 17 17 11 14 14 11 10 10 9 9 8 8 10 11 12 11 11 12 12 7 5 4 4 4 5 6 6
11 10 16 18 16 12 7 4 7 7 7 10 9 12 11 8 15 18 17 14 16 16 16 14 12 11 9 9 9 9 11 10 9 8 10 10 8 6 5 5 6 5 5 5
11 6 10 15 15 12 6 2 4 5 4 14 16 11 12 10 15 12 14 15 16 16 14 12 9 10 9 8 9 9 11 9 9 9 9 10 11 10 9 7 5 4 3 3
11 14 9 4 6 10 10 7 5 6 9 11 8 12 15 11 12 15 14 15 16 17 17 16 15 13 12 11 10 9 11 10 9 10 9 9 10 9 9 7 5 4 2 2
7 9 15 12 12 10 15 14 9 7 7 6 8 15 11 11 14 13 11 14 18 18 17 17 16 15 14 13 11 11 12 11 10 11 10 9 9 7 6 6 5 4 2 1
8 8 7 14 11 12 10 14 11 5 7 6 9 8 7 8 10 9 11 17 20 20 18 17 15 13 13 13 11 12 13 12 10 11 11 9 8 8 7 6 4 3 2 1
8 7 5 5 6 13 9 9 7 9 7 9 8 9 9 9 11 9 15 19 18 17 16 15 14 13 11 10 10 10 11 12 11 10 9 9 8 8 7 6 5 3 2 2
9 8 5 6 12 16 14 13 10 9 7 6 6 8 9 14 14 16 17 18 20 20 18 16 13 12 11 10 10 10 10 11 10 9 9 9 7 7 6 5 4 3 2 2
10 7 8 12 11 14 15 15 12 9 8 6 6 9 5 9 12 15 16 15 14 15 15 14 14 12 12 12 11 10 9 10 9 9 9 8 7 7 6 5 3 3 2 2
11 7 6 6 8 11 14 15 16 8 2 5 6 11 6 3 8 10 13 14 14 14 14 12 12 13 13 12 11 10 9 9 9 9 9 8 7 6 5 4 3 2 2 3
12 8 9 8 3 5 11 17 19 14 9 8 10 12 7 3 8 9 11 14 14 15 15 14 13 11 11 11 11 11 9 9 10 9 9 7 6 6 5 3 2 2 2 3
8 7 10 16 18 13 12 18 21 20 13 9 9 10 10 8 9 12 13 15 15 15 15 16 15 12 12 11 10 10 10 9 10 9 8 6 5 5 4 3 2 3 3 4
7 7 8 11 13 15 14 17 20 19 17 14 12 9 5 2 5 8 12 16 16 16 16 15 14 14 14 13 12 11 10 9 10 9 7 6 5 4 3 2 3 3 4 4
6 5 5 5 1 7 9 16 18 15 12 13 11 8 3 4 7 11 13 16 17 17 15 16 15 14 13 13 14 13 11 10 9 8 7 6 5 4 3 3 3 4 4 5
6 4 3 4 3 0 3 6 13 14 12 11 8 5 5 6 5 4 2 9 11 12 13 13 12 11 10 11 12 12 11 10 9 7 6 5 5 4 3 3 3 3 3 4
6 3 3 2 3 4 3 2 6 8 6 8 8 5 5 7 6 5 6 2 6 8 10 10 10 12 12 13 14 13 11 9 8 7 6 5 4 3 2 2 3 3 3 4
3 3 1 2 3 2 3 1 1 4 3 3 7 10 9 7 5 2 3 6 10 11 11 12 12 14 13 12 13 13 11 9 7 6 6 5 4 3 1 2 3 2 3 5
4 3 3 2 3 7 6 3 2 4 5 1 3 9 10 5 5 8 7 9 12 13 13 13 14 12 12 12 12 12 9 7 6 6 6 4 3 2 1 2 2 4 4 5
7 5 5 4 4 8 3 1 3 4 0 3 2 5 9 12 14 12 11 12 13 13 12 13 13 11 8 10 12 11 8 7 6 6 5 3 3 2 3 3 4 4 4 5
6 7 6 7 7 3 2 0 1 2 3 2 5 10 17 15 12 11 10 11 11 11 10 10 13 11 8 7 10 11 7 6 6 5 4 3 3 3 3 3 4 4 4 4
4 3 3 3 5 2 1 1 2 3 4 6 10 13 15 16 13 13 11 10 9 10 10 10 12 11 8 7 8 8 7 6 6 5 4 3 3 3 3 3 3 3 4 5
6 6 4 4 3 1 1 1 4 6 10 12 10 9 13 17 14 12 11 10 9 9 7 8 10 10 8 8 8 7 6 6 6 5 4 3 2 2 3 3 3 4 3 6
5 7 8 7 7 7 5 5 7 10 10 12 14 11 8 11 12 11 9 7 8 9 8 9 9 10 8 8 7 6 6 6 6 4 2 1 1 2 2 3 4 7 9 14
Wind_Direction
210 192 214 211 215 239 270 268 273 282 311 291 262 263 251 245 247 245 250 243 223 212 202 180 144 127 115 106 110 119 125 129 126 123 118 113 103 95 85 78 78 76 72 68
237 233 226 218 222 238 253 267 276 292 288 293 289 281 262 239 239 237 240 230 205 193 188 175 143 125 122 115 110 114 121 122 122 118 113 111 112 97 82 77 68 66 67 65
216 229 212 215 222 231 240 244 255 268 308 296 287 279 255 245 237 238 237 218 195 186 183 172 152 137 126 123 127 125 123 121 120 119 116 112 98 85 73 68 65 63 70 69
235 240 258 231 225 220 247 235 241 253 260 271 277 285 264 241 236 235 235 214 195 187 174 164 154 146 137 133 128 127 126 125 126 128 132 133 130 124 120 113 97 77 69 68
224 206 222 235 233 217 231 214 232 242 250 266 253 269 266 242 238 230 226 208 195 182 171 166 159 148 136 131 128 127 124 123 121 119 124 120 111 110 112 106 99 82 66 62
232 225 220 227 232 225 228 248 265 240 240 253 237 232 263 224 227 224 217 201 189 173 163 152 142 135 127 123 122 125 123 119 117 114 113 119 122 124 122 118 112 95 74 51
230 228 233 222 206 210 205 206 220 212 213 242 199 212 246 234 234 228 216 195 178 166 158 155 151 147 142 136 131 128 127 122 118 113 110 114 119 121 124 127 123 119 98 64
221 229 208 207 203 196 201 200 207 204 220 241 192 225 243 233 246 244 223 183 165 163 162 160 156 152 148 142 136 133 129 125 120 117 113 110 111 109 109 112 116 120 127 136
215 242 204 207 199 187 190 205 222 280 294 252 224 239 262 230 244 229 186 165 166 163 161 158 154 152 150 145 141 138 133 126 122 120 117 112 109 108 109 108 105 110 119 120
204 245 233 194 195 209 203 173 168 207 239 244 236 225 222 207 217 189 168 165 162 157 155 155 156 153 148 141 133 129 130 128 125 122 121 118 111 111 113 112 111 110 99 72
202 224 241 194 205 202 194 198 191 190 230 263 245 242 212 204 194 178 173 168 163 161 159 158 156 151 142 135 134 131 129 128 126 121 116 115 113 113 113 113 116 118 98 57
199 224 247 234 221 205 197 200 195 195 204 229 279 276 274 207 181 172 168 163 158 154 153 154 153 147 145 145 142 138 136 131 128 124 118 115 114 114 114 117 119 109 76 27
179 212 249 243 208 194 202 202 205 212 226 232 245 268 317 142 148 160 156 151 150 150 150 150 152 154 154 151 147 143 138 132 129 124 119 115 117 119 122 125 113 82 42 1
178 213 226 250 253 191 193 198 199 202 216 235 244 266 287 165 150 149 151 151 152 157 158 158 158 157 154 151 148 143 136 133 131 125 121 122 127 130 131 124 97 54 15 351
190 239 243 253 255 243 213 197 196 204 209 225 257 256 242 202 174 162 154 152 154 162 165 166 164 158 153 148 144 140 134 133 132 127 125 129 132 129 122 106 68 26 6 352
201 255 273 269 243 216 208 200 199 205 208 226 252 272 260 130 111 134 153 160 167 172 172 169 163 159 158 153 147 140 135 134 132 129 130 131 129 124 113 89 47 19 1 352
204 241 289 312 55 158 198 196 192 200 204 207 226 242 187 134 153 163 168 172 176 176 171 169 167 164 157 151 145 142 139 134 130 129 129 131 129 121 102 66 36 11 354 349
196 225 272 311 2 304 246 184 179 190 208 200 211 226 174 142 112 71 148 178 174 167 163 160 153 144 137 133 135 132 133 133 131 129 131 130 125 114 87 50 18 350 339 335
190 202 289 325 332 314 336 104 165 177 208 201 195 162 124 125 84 28 357 159 153 145 141 138 135 132 131 134 135 131 130 129 129 131 133 130 123 111 73 19 349 333 323 314
172 174 243 335 342 299 287 334 201 140 217 200 175 165 163 142 129 202 23 85 99 102 111 117 119 122 126 132 133 131 133 131 133 134 130 125 119 107 51 353 331 316 306 296
151 176 193 234 285 276 267 297 90 138 232 297 179 174 165 158 141 123 96 86 95 101 107 114 118 122 129 131 128 128 128 131 130 123 119 115 104 76 23 355 325 311 306 307
170 174 186 176 222 261 292 70 153 204 3 45 85 115 113 106 104 106 103 102 103 103 106 113 114 113 116 123 124 123 125 125 118 116 113 101 74 35 21 358 326 315 316 316
199 190 184 195 215 263 327 10 46 133 110 96 99 118 123 116 113 109 104 103 102 106 105 108 114 110 103 111 122 125 129 125 117 112 104 81 51 29 17 350 325 320 322 318
243 171 162 243 266 265 327 32 43 71 103 110 122 126 124 120 121 117 115 111 107 108 110 114 115 115 111 108 109 121 127 121 115 107 91 67 47 16 354 337 321 320 319 314
209 168 178 241 261 124 250 160 113 94 102 103 99 108 124 123 124 124 123 120 118 115 111 113 118 120 119 115 111 115 117 112 106 97 81 59 29 343 325 323 320 326 302 313
193 176 177 213 206 186 198 158 131 122 122 124 117 101 101 120 123 123 120 119 121 120 116 114 114 118 120 118 115 112 109 109 108 101 85 25 324 312 314 319 321 333 334 331